Location: Barcelona
(41.3829°N, 2.1774°E)
Time: 17:54:45
(UTC+00:00)

ISS - Pass Details

Date: 08 May 2026
Orbit: 414 x 424 km, 51.6° (Epoch: 17 May)

Event Time Altitude Azimuth Distance (km) Brightness Sun altitude
Exits shadow 02:07:32 10° 320° (NW) 1,485 -0.8 -23.2°
Maximum altitude 02:10:35 33° 26° (NNE) 729 -2.0 -22.9°
Drops below altitude 10° 02:13:40 10° 92° (E) 1,497 -0.5 -22.5°
Sets 02:15:54 0° 103° (ESE) 2,361 0.4 -22.3°
